Flag for Poland Weather past 2 weeks in Bydgoszcz, Poland

Now
33 °F

Overcast.


Feels Like: 28 °F
Forecast: 30 / 36 °F
Wind: 5 mph from South

Location: Torun

Current Time: Jan 26, 2015 at 10:18:58 PM

Latest Report: Jan 26, 2015 at 9:00 PM


Visibility: 9 mi

Pressure: 30.03 "Hg

Humidity: 72%

Dew point: 25 °F

Location of BydgoszczLocation

Historic Weather in Bydgoszcz — Graph

°F

Bydgoszcz temperature yesterday

Maximum temperature yesterday: 32 °F (at 8:00 PM)
Minimum temperature yesterday: 28 °F (at 7:00 AM)
Average temperature yesterday: 30 °F

Past Weeks' High & Low Weather Summary

 TemperatureHumidityPressure
High50 °F (Jan 13, 5:00 PM)100% (Jan 18, 8:00 AM)30.26 "Hg (Jan 18, 8:00 AM)
Low25 °F (Jan 22, 7:00 AM)59% (Jan 14, 3:00 PM)29.55 "Hg (Jan 11, 9:00 PM)
Average35 °F88%29.98 "Hg
* Reported Jan 11 9:00 PM — Jan 26 9:00 PM, Bydgoszcz, Weather by CustomWeather, © 2014

Note: Actual official high and low records may vary slightly from our data, if they occured in-between our weather recording intervals... More about our weather records

Advertising

Bydgoszcz weather history for previous 24 hours

 ConditionsComfort  
Time TempWeatherWind HumidityBarometerVisibility
9:00 PM
Jan 26
33 °FOvercast.5 mph72%30.03 "Hg9 mi
8:00 PM33 °FOvercast.3 mph72%30.05 "Hg11 mi
7:00 PM33 °FOvercast.3 mph73%30.08 "Hg7 mi
6:00 PM33 °FOvercast.3 mph75%30.10 "Hg7 mi
5:00 PM33 °FOvercast.2 mph72%30.12 "Hg8 mi
4:00 PM33 °FOvercast.5 mph68%30.14 "Hg11 mi
3:00 PM34 °FFog.3 mph83%30.15 "Hg4 mi
2:00 PM33 °FFog.3 mph86%30.18 "Hg4 mi
1:00 PM34 °FFog.3 mph85%30.20 "Hg6 mi
12:00 PM33 °FFog.2 mph87%30.22 "Hg5 mi
11:00 AM33 °FFog.2 mph89%30.24 "Hg4 mi
10:00 AM33 °FFog.1 mph93%30.25 "Hg3 mi
9:00 AM32 °FFog.1 mph95%30.26 "Hg2 mi
8:00 AM32 °FFog.1 mph95%30.26 "Hg3 mi
7:00 AM32 °FFog.1 mph95%30.26 "Hg3 mi
6:00 AM32 °FFog.1 mph95%30.26 "Hg2 mi
5:00 AM32 °FFog.1 mph95%30.25 "Hg2 mi
4:00 AM32 °FFog.1 mph95%30.25 "Hg3 mi
3:00 AM32 °FFog.1 mph95%30.26 "Hg3 mi
2:00 AM32 °FFog.2 mph95%30.26 "Hg3 mi
1:00 AM32 °FFog.1 mph95%30.26 "Hg2 mi
12:00 AM32 °FFog.1 mph94%30.25 "Hg2 mi
11:00 PM
Jan 25
32 °FFog.1 mph93%30.25 "Hg1 mi
10:00 PM32 °FFog.1 mph93%30.25 "Hg1 mi
Weather by CustomWeather, © 2014

See weather overviewHow to use our weather pages